TimeCDT,TemperatureF,Dew PointF,Humidity,Sea Level PressureIn,VisibilityMPH,Wind Direction,Wind SpeedMPH,Gust SpeedMPH,PrecipitationIn,Events,Conditions,WindDirDegrees,DateUTC
12:15 AM,40.1,30.2,68,30.18,10.0,South,4.6,-,N/A,,Clear,170,2012-10-08 05:15:00
12:35 AM,40.1,29.8,67,30.18,10.0,SSE,4.6,-,N/A,,Clear,160,2012-10-08 05:35:00
12:55 AM,39.6,30.0,69,30.18,10.0,South,3.5,-,N/A,,Clear,170,2012-10-08 05:55:00
1:15 AM,38.8,30.2,71,30.18,10.0,South,3.5,-,N/A,,Clear,170,2012-10-08 06:15:00
1:35 AM,38.5,29.8,71,30.19,10.0,South,3.5,-,N/A,,Clear,170,2012-10-08 06:35:00
1:55 AM,39.0,30.0,70,30.19,10.0,South,4.6,-,N/A,,Clear,170,2012-10-08 06:55:00
2:15 AM,39.0,29.8,70,30.19,10.0,South,4.6,-,N/A,,Clear,170,2012-10-08 07:15:00
2:35 AM,38.5,29.7,71,30.18,10.0,South,3.5,-,N/A,,Clear,170,2012-10-08 07:35:00
2:55 AM,39.2,29.3,68,30.18,10.0,South,4.6,-,N/A,,Clear,180,2012-10-08 07:55:00
3:15 AM,39.6,29.3,67,30.18,10.0,South,4.6,-,N/A,,Clear,170,2012-10-08 08:15:00
3:35 AM,39.4,30.0,69,30.17,10.0,South,4.6,-,N/A,,Clear,170,2012-10-08 08:35:00
3:55 AM,39.9,30.6,69,30.17,10.0,South,4.6,-,N/A,,Clear,170,2012-10-08 08:55:00
4:15 AM,39.6,30.7,71,30.17,10.0,South,4.6,-,N/A,,Clear,170,2012-10-08 09:15:00
4:35 AM,39.6,31.1,72,30.17,10.0,South,5.8,-,N/A,,Clear,170,2012-10-08 09:35:00
4:55 AM,39.6,31.1,72,30.17,10.0,South,4.6,-,N/A,,Clear,170,2012-10-08 09:55:00
5:15 AM,40.1,31.1,70,30.17,10.0,South,4.6,-,N/A,,Clear,170,2012-10-08 10:15:00
5:35 AM,39.2,31.1,73,30.18,10.0,South,4.6,-,N/A,,Clear,190,2012-10-08 10:35:00
5:55 AM,40.1,31.1,70,30.18,10.0,South,4.6,-,N/A,,Clear,180,2012-10-08 10:55:00
6:15 AM,39.2,31.5,74,30.18,10.0,South,4.6,-,0.01,,Clear,170,2012-10-08 11:15:00
6:35 AM,39.2,32.0,75,30.18,10.0,South,6.9,-,0.01,,Clear,170,2012-10-08 11:35:00
6:55 AM,39.0,32.0,76,30.18,10.0,South,5.8,-,0.01,,Clear,180,2012-10-08 11:55:00
7:15 AM,38.8,32.0,76,30.18,10.0,South,4.6,-,N/A,,Clear,170,2012-10-08 12:15:00
7:35 AM,39.4,32.0,75,30.18,10.0,South,3.5,-,N/A,,Clear,190,2012-10-08 12:35:00
7:55 AM,40.6,32.4,72,30.19,10.0,South,3.5,-,N/A,,Clear,190,2012-10-08 12:55:00
8:15 AM,43.2,32.9,67,30.20,10.0,SSW,5.8,-,N/A,,Clear,200,2012-10-08 13:15:00
8:35 AM,45.1,33.4,64,30.19,10.0,SSW,5.8,-,N/A,,Clear,200,2012-10-08 13:35:00
8:55 AM,46.6,34.2,62,30.19,10.0,South,8.1,-,N/A,,Clear,190,2012-10-08 13:55:00
9:15 AM,48.9,35.1,59,30.19,10.0,SSW,8.1,-,N/A,,Clear,200,2012-10-08 14:15:00
9:35 AM,51.4,36.1,56,30.19,10.0,SSW,5.8,-,N/A,,Clear,210,2012-10-08 14:35:00
9:55 AM,54.0,35.1,49,30.18,10.0,SSW,10.4,-,N/A,,Clear,200,2012-10-08 14:55:00
10:15 AM,55.6,33.8,44,30.18,10.0,SSW,12.7,-,N/A,,Clear,200,2012-10-08 15:15:00
10:35 AM,56.7,33.6,42,30.18,10.0,SW,12.7,17.3,N/A,,Clear,220,2012-10-08 15:35:00
10:55 AM,57.6,33.1,40,30.18,10.0,SSW,15.0,-,N/A,,Clear,210,2012-10-08 15:55:00
11:15 AM,58.1,32.4,38,30.18,10.0,SSW,9.2,19.6,N/A,,Clear,210,2012-10-08 16:15:00
11:35 AM,59.0,32.2,36,30.17,10.0,SW,11.5,-,N/A,,Clear,220,2012-10-08 16:35:00
11:55 AM,59.7,32.0,35,30.17,10.0,SSW,12.7,19.6,N/A,,Clear,210,2012-10-08 16:55:00
12:15 PM,60.1,32.0,35,30.16,10.0,SSW,13.8,-,N/A,,Clear,210,2012-10-08 17:15:00
12:35 PM,60.3,32.2,35,30.15,10.0,South,10.4,18.4,N/A,,Clear,190,2012-10-08 17:35:00
12:55 PM,60.6,32.7,35,30.14,10.0,South,8.1,18.4,N/A,,Clear,180,2012-10-08 17:55:00
1:15 PM,61.2,32.2,34,30.13,10.0,SSW,10.4,20.7,0.01,,Clear,210,2012-10-08 18:15:00
1:35 PM,61.5,31.5,32,30.12,10.0,South,13.8,20.7,0.01,,Clear,190,2012-10-08 18:35:00
1:55 PM,61.7,32.0,33,30.11,10.0,SSW,13.8,20.7,0.01,,Clear,200,2012-10-08 18:55:00
2:15 PM,61.9,32.0,33,30.10,10.0,SSW,13.8,19.6,N/A,,Clear,210,2012-10-08 19:15:00
2:35 PM,62.4,32.4,32,30.09,10.0,SSW,13.8,17.3,N/A,,Clear,200,2012-10-08 19:35:00
2:55 PM,62.6,32.0,32,30.08,10.0,SW,13.8,20.7,N/A,,Clear,220,2012-10-08 19:55:00
3:15 PM,61.9,32.9,34,30.08,10.0,South,10.4,19.6,N/A,,Clear,190,2012-10-08 20:15:00
3:35 PM,62.2,32.4,33,30.07,10.0,SSW,12.7,18.4,N/A,,Clear,210,2012-10-08 20:35:00
3:55 PM,62.4,32.2,32,30.07,10.0,SW,12.7,20.7,N/A,,Clear,220,2012-10-08 20:55:00
4:15 PM,62.2,32.4,33,30.06,10.0,SSW,11.5,17.3,N/A,,Clear,200,2012-10-08 21:15:00
4:35 PM,61.9,32.4,33,30.06,10.0,South,11.5,19.6,N/A,,Clear,190,2012-10-08 21:35:00
4:55 PM,61.3,32.0,33,30.05,10.0,SSW,11.5,18.4,N/A,,Clear,200,2012-10-08 21:55:00
5:15 PM,60.6,33.1,36,30.05,10.0,South,13.8,17.3,N/A,,Clear,190,2012-10-08 22:15:00
5:35 PM,59.9,33.6,37,30.05,10.0,South,10.4,17.3,N/A,,Clear,190,2012-10-08 22:35:00
5:55 PM,59.0,33.8,39,30.05,10.0,South,10.4,-,N/A,,Clear,190,2012-10-08 22:55:00
6:15 PM,57.7,34.2,41,30.05,10.0,South,9.2,-,N/A,,Clear,180,2012-10-08 23:15:00
6:35 PM,56.3,34.7,44,30.05,10.0,South,6.9,-,N/A,,Clear,180,2012-10-08 23:35:00
6:55 PM,55.2,34.7,46,30.05,10.0,South,6.9,-,N/A,,Clear,180,2012-10-08 23:55:00
7:15 PM,53.6,35.6,51,30.05,10.0,South,5.8,-,N/A,,Clear,170,2012-10-09 00:15:00
7:35 PM,52.7,35.2,52,30.05,10.0,South,5.8,-,N/A,,Clear,170,2012-10-09 00:35:00
7:55 PM,52.7,35.1,51,30.05,10.0,South,6.9,-,N/A,,Clear,170,2012-10-09 00:55:00
8:15 PM,52.2,35.6,53,30.05,10.0,South,6.9,-,N/A,,Clear,170,2012-10-09 01:15:00
8:35 PM,51.8,35.6,54,30.06,10.0,South,6.9,-,N/A,,Clear,170,2012-10-09 01:35:00
8:55 PM,51.8,35.6,54,30.05,10.0,SSE,6.9,-,N/A,,Clear,160,2012-10-09 01:55:00
9:15 PM,50.9,35.6,56,30.05,10.0,South,5.8,-,N/A,,Clear,170,2012-10-09 02:15:00
9:35 PM,50.0,35.8,58,30.06,10.0,SSE,5.8,-,N/A,,Clear,160,2012-10-09 02:35:00
9:55 PM,49.5,35.8,59,30.06,10.0,South,4.6,-,N/A,,Clear,170,2012-10-09 02:55:00
10:15 PM,48.9,36.0,61,30.06,10.0,South,5.8,-,N/A,,Clear,170,2012-10-09 03:15:00
10:35 PM,48.7,35.8,61,30.06,10.0,South,5.8,-,N/A,,Clear,170,2012-10-09 03:35:00
10:55 PM,48.4,36.0,62,30.06,10.0,South,5.8,-,N/A,,Clear,180,2012-10-09 03:55:00
11:15 PM,47.8,36.0,63,30.06,10.0,South,5.8,-,N/A,,Clear,170,2012-10-09 04:15:00
11:35 PM,48.2,35.8,62,30.06,10.0,South,5.8,-,N/A,,Clear,180,2012-10-09 04:35:00
11:55 PM,48.4,36.0,62,30.05,10.0,South,6.9,-,N/A,,Clear,170,2012-10-09 04:55:00